Location: Saint-Hippolyte
(43.6394°N, 4.7559°E)
Time: 16:07:17
(UTC+00:00)

Cosmos 44 - Pass Details

Date: 24 October 2020
Orbit: 578 x 784 km, 65.1° (Epoch: 23 November)

Event Time Altitude Azimuth Distance (km) Brightness Sun altitude
Rises 17:36:28 0° 197° (SSW) 2,830 6.8 -10.3°
Reaches altitude 10° 17:38:42 10° 192° (SSW) 1,955 5.9 -10.8°
Maximum altitude 17:42:57 49° 118° (ESE) 816 3.3 -11.5°
Drops below altitude 10° 17:47:28 10° 44° (NE) 2,083 5.3 -12.3°
Enters shadow 17:47:35 - 43° (NE) 2,127 5.4 -12.4°
